EW4638 Weather Reports


time (UTC)temp
C
wind
direction
speed
KPH
gust
KPH
rain 1hr
cm
rain 24hr
cm
rain mn
cm
humidity
%
barometer
mb
20260505124540 16 200 0.0 14.5 0.00 0.00 0.00 68 1011.2
20260505123038 15 153 0.0 3.2 0.00 0.00 0.00 70 1011.0
20260505121534 15 216 0.0 1.6 0.00 0.00 0.00 71 1010.8
20260505120033 15 197 0.0 4.8 0.00 0.00 0.00 71 1010.7
20260505114528 14 193 0.0 1.6 0.00 0.00 0.00 71 1010.6
20260505113026 14 94 0.0 3.2 0.00 0.00 0.00 69 1010.6
20260505111524 14 126 0.0 4.8 0.00 0.00 0.00 68 1010.7
20260505101530 15 240 0.0 6.4 0.00 0.00 0.00 67 1009.9
20260505100021 15 223 0.0 3.2 0.00 0.00 0.00 66 1009.7
20260505094512 15 200 0.0 4.8 0.00 0.00 0.00 66 1009.8
20260505093022 15 167 0.0 0.0 0.00 0.00 0.00 65 1009.7
20260505091509 15 227 0.0 0.0 0.00 0.00 0.00 64 1009.9
20260505090007 16 235 0.0 12.9 0.00 0.00 0.00 63 1010.0
20260505084506 16 277 0.0 4.8 0.00 0.00 0.00 62 1009.9
20260505083008 16 213 0.0 11.3 0.00 0.00 0.00 61 1010.0
20260505081507 16 209 0.0 9.7 0.00 0.00 0.00 61 1009.9
20260505080118 16 244 0.0 12.9 0.00 0.00 0.00 61 1009.7
20260505074602 16 232 0.0 3.2 0.00 0.00 0.00 61 1009.6
20260505073056 16 219 0.0 4.8 0.00 0.00 0.00 61 1009.5
20260505071558 16 243 0.0 6.4 0.00 0.00 0.00 60 1009.4
20260505070051 16 246 0.0 11.3 0.00 0.00 0.00 60 1009.4
20260505064548 16 236 0.0 8.0 0.00 0.00 0.00 59 1009.7
20260505063104 17 243 0.0 1.6 0.00 0.00 0.00 58 1009.7
20260505061607 17 231 0.0 4.8 0.00 0.00 0.00 57 1009.8
20260505060041 17 211 0.0 0.0 0.00 0.00 0.00 56 1010.0
20260505054539 18 230 0.0 8.0 0.00 0.00 0.00 56 1010.0
20260505053042 18 267 0.0 1.6 0.00 0.00 0.00 55 1010.0
20260505051555 18 217 0.0 4.8 0.00 0.00 0.00 55 1009.8
20260505041532 18 209 3.2 14.5 0.00 0.00 0.00 55 1009.3
20260505040028 18 211 0.0 6.4 0.00 0.00 0.00 54 1009.1
20260505034524 19 243 1.6 16.1 0.00 0.00 0.00 53 1009.1
20260505033025 19 224 0.0 17.7 0.00 0.00 0.00 52 1009.0
20260505031520 20 277 0.0 16.1 0.00 0.00 0.00 51 1008.9
20260505030018 20 284 1.6 16.1 0.00 0.00 0.00 50 1008.8
20260505024616 20 222 4.8 16.1 0.00 0.00 0.00 50 1008.6
20260505023014 20 197 3.2 19.3 0.00 0.00 0.00 49 1008.6
20260505021513 21 188 0.0 16.1 0.00 0.00 0.00 49 1008.6
20260505020012 21 181 3.2 19.3 0.00 0.00 0.00 50 1008.5
20260505014510 21 208 1.6 14.5 0.00 0.00 0.00 50 1008.7
20260505013007 21 202 3.2 16.1 0.00 0.00 0.00 49 1008.7
20260505011504 21 220 4.8 14.5 0.00 0.00 0.00 49 1008.6
20260505010113 21 217 0.0 8.0 0.00 0.00 0.00 48 1008.8
20260505004559 21 235 0.0 8.0 0.00 0.00 0.00 48 1008.7
20260505003058 22 228 1.6 14.5 0.00 0.00 0.00 47 1008.6
20260505003005 22 274 3.2 14.5 0.00 0.00 0.00 47 1008.6
20260505000049 22 182 0.0 11.3 0.00 0.00 0.00 46 1008.6
20260504233101 23 241 0.0 11.3 0.00 0.00 0.00 45 1008.8
20260504231526 23 232 0.0 12.9 0.00 0.00 0.00 44 1008.8
20260504230025 23 240 1.6 17.7 0.00 0.00 0.00 43 1008.9
20260504224537 23 246 1.6 8.0 0.00 0.00 0.00 45 1008.8
20260504223027 24 219 0.0 12.9 0.00 0.00 0.00 44 1008.8
20260504221521 24 158 0.0 11.3 0.00 0.00 0.00 45 1008.9
20260504220021 24 202 1.6 20.9 0.00 0.00 0.00 43 1009.1
20260504214520 25 219 0.0 9.7 0.00 0.00 0.00 44 1009.0
20260504213020 25 266 4.8 19.3 0.00 0.00 0.00 42 1008.9
20260504211518 25 229 4.8 20.9 0.00 0.00 0.00 41 1009.0
20260504210017 25 233 0.0 17.7 0.00 0.00 0.00 43 1009.0
20260504204515 25 80 3.2 14.5 0.00 0.00 0.00 42 1009.1
20260504203021 26 234 0.0 11.3 0.00 0.00 0.00 43 1009.2
20260504201511 26 229 4.8 16.1 0.00 0.00 0.00 41 1009.5
20260504200010 26 169 3.2 19.3 0.00 0.00 0.00 42 1010.0
20260504194507 26 313 1.6 11.3 0.00 0.00 0.00 46 1010.1
20260504193012 26 239 0.0 12.9 0.00 0.00 0.00 44 1010.2
20260504191508 26 240 0.0 19.3 0.00 0.00 0.00 43 1010.4
20260504190000 26 292 3.2 14.5 0.00 0.00 0.00 44 1010.5
20260504184557 25 308 1.6 19.3 0.00 0.00 0.00 48 1010.6
20260504183055 25 247 3.2 20.9 0.00 0.00 0.00 47 1010.8
20260504181554 25 226 1.6 16.1 0.00 0.00 0.00 51 1010.9
20260504180047 24 196 0.0 19.3 0.00 0.00 0.00 50 1011.1
20260504174546 23 192 3.2 16.1 0.00 0.00 0.00 50 1011.3
20260504173043 23 253 3.2 17.7 0.00 0.00 0.00 49 1011.4
20260504171539 23 213 0.0 14.5 0.00 0.00 0.00 50 1011.7